Location: Biharia
(46.4333°N, 22.8000°E)
Time: 22:48:48
(UTC+00:00)

Okean O Rocket - Pass Details

Date: 16 October 2021
Orbit: 623 x 643 km, 98.2° (Epoch: 26 November)

Event Time Altitude Azimuth Distance (km) Brightness Sun altitude
Rises 16:18:33 0° 155° (SSE) 2,893 4.8 -7.3°
Reaches altitude 10° 16:20:44 10° 152° (SSE) 1,990 3.9 -7.7°
Maximum altitude 16:25:00 61° 72° (ENE) 714 1.6 -8.4°
Drops below altitude 10° 16:29:18 10° 353° (N) 2,009 4.2 -9.2°
Sets 16:31:31 0° 350° (N) 2,922 5.1 -9.6°
